Regional Weather Roundup
Issued by NWS

Home | Current Version | Previous Version | Graphics & Text | Print | Product List | Glossary On
Versions: 1 2 3 4 5 6 7 8 9 10 11 12 13 14 15 16 17 18 19 20 21 22 23 24 25 26 27 28 29 30 31 32 33 34 35 36 37 38 39 40 41 42 43 44 45 46 47 48 49 50
000
ASUS45 KBOI 310210
RWRID
WEATHER ROUNDUP FOR IDAHO
NATIONAL WEATHER SERVICE BOISE ID
800 PM MDT SAT AUG 30 2014

NOTE: "FAIR" INDICATES FEW OR NO CLOUDS BELOW 12000 FEET
WITH NO SIGNIFICANT WEATHER AND/OR OBSTRUCTIONS TO VISIBILITY

IDZ012-014-310300-
SOUTHWEST IDAHO


CITY           SKY/WX    TMP DP  RH WIND       PRES   REMARKS
BOISE          MOCLDY    77  39  25 NW7       29.81F
CALDWELL       MOCLDY    75  43  31 CALM      29.82S
MOUNTAIN HOME  CLOUDY    78  40  25 NW12      29.81F
$$

IDZ016-017-310300-
SOUTHCENTRAL IDAHO


CITY           SKY/WX    TMP DP  RH WIND       PRES   REMARKS
BURLEY         CLOUDY    65  43  44 SW8       29.88R
JEROME         CLOUDY    68  43  40 W5        29.87F
TWIN FALLS     CLOUDY    69  46  43 CALM      29.88S
$$

IDZ019>023-310300-
SOUTHEAST IDAHO


CITY           SKY/WX    TMP DP  RH WIND       PRES   REMARKS
IDAHO FALLS    PTCLDY    67  40  37 SW9       29.88R HAZE
POCATELLO      CLEAR     68  40  35 SW13      29.89S
REXBURG        MOCLDY    61  51  70 VRB3      29.88R
$$

IDZ006-010-011-018-031-032-310300-
CENTRAL IDAHO MOUNTAINS


CITY           SKY/WX    TMP DP  RH WIND       PRES   REMARKS
MCCALL         CLOUDY    59  45  59 NW5       29.91S
HAILEY         MOCLDY    66  43  42 SW9       29.92S
STANLEY          N/A     59  35  40 CALM      29.97F
SALMON         CLOUDY    57  52  82 CALM      29.88S
CHALLIS        MOCLDY    64  43  46 N10       29.87R
$$

IDZ002-004-006-007-026-310300-
NORTHERN IDAHO


CITY           SKY/WX    TMP DP  RH WIND       PRES   REMARKS
LEWISTON       CLOUDY    72  49  44 W9        29.81R
LOWELL           N/A     63  56  78 CALM      29.87R
COEUR D`ALENE  MOCLDY    70  43  37 SW9       29.80F
MULLAN PASS    MOCLDY    50  39  66 VRB6      29.94S
$$



USA.gov is the U.S. government's official web portal to all federal, state and local government web resources and services.